| time (UTC) | temp F | wind direction | speed MPH | gust MPH | rain 1hr in | rain 24hr in | rain mn in | humidity % | barometer mb |
| 20260510013056 | 70 | 278 | 6.0 | 15.0 | 0.00 | 0.00 | 0.00 | 55 | 1015.3 |
| 20260510011538 | 72 | 266 | 6.0 | 15.0 | 0.00 | 0.00 | 0.00 | 51 | 1015.3 |
| 20260510010050 | 73 | 257 | 5.0 | 14.0 | 0.00 | 0.00 | 0.00 | 48 | 1015.3 |
| 20260510004538 | 75 | 268 | 6.0 | 10.0 | 0.00 | 0.00 | 0.00 | 47 | 1015.2 |
| 20260510003047 | 78 | 265 | 2.0 | 4.0 | 0.00 | 0.00 | 0.00 | 45 | 1015.2 |
| 20260510001545 | 77 | 133 | 0.0 | 3.0 | 0.00 | 0.00 | 0.00 | 38 | 1015.3 |
| 20260510000044 | 78 | 109 | 0.0 | 3.0 | 0.00 | 0.00 | 0.00 | 38 | 1015.4 |
| 20260509234542 | 78 | 0 | 0.0 | 3.0 | 0.00 | 0.00 | 0.00 | 39 | 1015.6 |
| 20260509233041 | 78 | 0 | 0.0 | 2.0 | 0.00 | 0.00 | 0.00 | 37 | 1015.6 |
| 20260509231543 | 78 | 89 | 0.0 | 2.0 | 0.00 | 0.00 | 0.00 | 36 | 1015.8 |
| 20260509230046 | 78 | 169 | 0.0 | 3.0 | 0.00 | 0.00 | 0.00 | 36 | 1016.0 |
| 20260509224544 | 79 | 110 | 0.0 | 1.0 | 0.00 | 0.00 | 0.00 | 36 | 1016.1 |
| 20260509223044 | 79 | 9 | 0.0 | 2.0 | 0.00 | 0.00 | 0.00 | 35 | 1016.3 |
| 20260509221544 | 78 | 0 | 0.0 | 2.0 | 0.00 | 0.00 | 0.00 | 33 | 1016.5 |
| 20260509220043 | 78 | 0 | 0.0 | 2.0 | 0.00 | 0.00 | 0.00 | 34 | 1016.7 |
| 20260509214542 | 78 | 49 | 0.0 | 2.0 | 0.00 | 0.00 | 0.00 | 33 | 1017.2 |
| 20260509213038 | 76 | 278 | 1.0 | 2.0 | 0.00 | 0.00 | 0.00 | 34 | 1017.6 |
| 20260509211549 | 76 | 0 | 0.0 | 1.0 | 0.00 | 0.00 | 0.00 | 36 | 1017.8 |
| 20260509210049 | 75 | 0 | 0.0 | 3.0 | 0.00 | 0.00 | 0.00 | 41 | 1018.0 |
| 20260509204544 | 75 | 0 | 0.0 | 1.0 | 0.00 | 0.00 | 0.00 | 39 | 1018.0 |
| 20260509203041 | 75 | 0 | 0.0 | 3.0 | 0.00 | 0.00 | 0.00 | 40 | 1018.3 |
| 20260509201541 | 73 | 0 | 0.0 | 3.0 | 0.00 | 0.00 | 0.00 | 44 | 1018.4 |
| 20260509200047 | 73 | 0 | 0.0 | 3.0 | 0.00 | 0.00 | 0.00 | 46 | 1018.6 |
| 20260509194551 | 72 | 0 | 0.0 | 3.0 | 0.00 | 0.00 | 0.00 | 51 | 1018.9 |
| 20260509193045 | 69 | 0 | 0.0 | 3.0 | 0.00 | 0.00 | 0.00 | 57 | 1019.2 |
| 20260509191539 | 67 | 321 | 1.0 | 3.0 | 0.00 | 0.00 | 0.00 | 62 | 1019.4 |
| 20260509190040 | 67 | 0 | 0.0 | 1.0 | 0.00 | 0.00 | 0.00 | 64 | 1019.3 |
| 20260509184552 | 67 | 0 | 0.0 | 2.0 | 0.00 | 0.00 | 0.00 | 61 | 1019.7 |
| 20260509183054 | 67 | 0 | 1.0 | 4.0 | 0.00 | 0.00 | 0.00 | 63 | 1019.6 |
| 20260509181538 | 66 | 0 | 0.0 | 3.0 | 0.00 | 0.00 | 0.00 | 63 | 1019.9 |
| 20260509180052 | 65 | 129 | 1.0 | 3.0 | 0.00 | 0.00 | 0.00 | 64 | 1020.0 |
| 20260509174546 | 63 | 0 | 0.0 | 3.0 | 0.00 | 0.00 | 0.00 | 67 | 1020.1 |
| 20260509173053 | 62 | 0 | 0.0 | 3.0 | 0.00 | 0.00 | 0.00 | 70 | 1020.3 |
| 20260509171543 | 61 | 0 | 0.0 | 2.0 | 0.00 | 0.00 | 0.00 | 72 | 1020.4 |
| 20260509170038 | 60 | 0 | 0.0 | 3.0 | 0.00 | 0.00 | 0.00 | 74 | 1020.3 |
| 20260509164537 | 58 | 143 | 1.0 | 3.0 | 0.00 | 0.00 | 0.00 | 78 | 1020.5 |
| 20260509163043 | 57 | 156 | 1.0 | 3.0 | 0.00 | 0.00 | 0.00 | 80 | 1020.6 |
| 20260509161553 | 55 | 0 | 0.0 | 2.0 | 0.00 | 0.00 | 0.00 | 83 | 1020.8 |
| 20260509160042 | 54 | 129 | 0.0 | 1.0 | 0.00 | 0.00 | 0.00 | 85 | 1020.8 |
| 20260509154547 | 52 | 0 | 0.0 | 1.0 | 0.00 | 0.00 | 0.00 | 88 | 1021.0 |
| 20260509153052 | 50 | 0 | 0.0 | 0.0 | 0.00 | 0.00 | 0.00 | 91 | 1021.0 |
| 20260509151537 | 48 | 0 | 0.0 | 1.0 | 0.00 | 0.00 | 0.00 | 94 | 1021.1 |
| 20260509150048 | 46 | 0 | 0.0 | 0.0 | 0.00 | 0.00 | 0.00 | 95 | 1021.4 |
| 20260509144546 | 45 | 0 | 0.0 | 0.0 | 0.00 | 0.00 | 0.00 | 95 | 1021.4 |
| 20260509143043 | 44 | 0 | 0.0 | 2.0 | 0.00 | 0.00 | 0.00 | 95 | 1021.4 |
| 20260509141543 | 43 | 0 | 0.0 | 1.0 | 0.00 | 0.00 | 0.00 | 95 | 1021.3 |
| 20260509140059 | 42 | 0 | 0.0 | 1.0 | 0.00 | 0.00 | 0.00 | 95 | 1021.0 |
| 20260509134538 | 42 | 0 | 0.0 | 2.0 | 0.00 | 0.00 | 0.00 | 95 | 1021.2 |
| 20260509133041 | 41 | 302 | 1.0 | 2.0 | 0.00 | 0.00 | 0.00 | 95 | 1021.0 |
| 20260509131537 | 41 | 306 | 0.0 | 4.0 | 0.00 | 0.00 | 0.00 | 95 | 1021.1 |
| 20260509130043 | 41 | 314 | 0.0 | 3.0 | 0.00 | 0.00 | 0.00 | 95 | 1021.0 |
| 20260509124549 | 41 | 0 | 0.0 | 3.0 | 0.00 | 0.00 | 0.00 | 94 | 1021.2 |
| 20260509123039 | 42 | 293 | 1.0 | 3.0 | 0.00 | 0.00 | 0.00 | 95 | 1021.3 |
| 20260509121541 | 41 | 0 | 0.0 | 2.0 | 0.00 | 0.00 | 0.00 | 95 | 1021.4 |
| 20260509120046 | 42 | 0 | 0.0 | 3.0 | 0.00 | 0.00 | 0.00 | 95 | 1021.6 |
| 20260509114541 | 42 | 289 | 0.0 | 1.0 | 0.00 | 0.00 | 0.00 | 94 | 1021.7 |
| 20260509113041 | 42 | 0 | 0.0 | 1.0 | 0.00 | 0.00 | 0.00 | 94 | 1021.7 |
| 20260509111538 | 43 | 307 | 0.0 | 4.0 | 0.00 | 0.00 | 0.00 | 94 | 1021.7 |
| 20260509110040 | 43 | 302 | 1.0 | 3.0 | 0.00 | 0.00 | 0.00 | 94 | 1021.7 |
| 20260509104544 | 42 | 295 | 1.0 | 1.0 | 0.00 | 0.00 | 0.00 | 94 | 1021.9 |
| 20260509103047 | 43 | 0 | 0.0 | 1.0 | 0.00 | 0.00 | 0.00 | 94 | 1021.9 |
| 20260509101540 | 44 | 283 | 0.0 | 2.0 | 0.00 | 0.00 | 0.00 | 94 | 1022.1 |
| 20260509100041 | 44 | 283 | 0.0 | 2.0 | 0.00 | 0.00 | 0.00 | 94 | 1022.1 |
| 20260509094553 | 44 | 300 | 0.0 | 1.0 | 0.00 | 0.00 | 0.00 | 93 | 1022.1 |
| 20260509093040 | 44 | 0 | 0.0 | 2.0 | 0.00 | 0.00 | 0.00 | 93 | 1022.1 |
| 20260509091550 | 45 | 0 | 0.0 | 1.0 | 0.00 | 0.00 | 0.00 | 93 | 1022.2 |
| 20260509090239 | 45 | 0 | 0.0 | 1.0 | 0.00 | 0.00 | 0.00 | 93 | 1022.3 |
| 20260509084543 | 45 | 302 | 0.0 | 1.0 | 0.00 | 0.00 | 0.00 | 92 | 1022.4 |
| 20260509083041 | 46 | 0 | 0.0 | 2.0 | 0.00 | 0.00 | 0.00 | 91 | 1022.5 |
| 20260509081538 | 47 | 293 | 1.0 | 3.0 | 0.00 | 0.00 | 0.00 | 90 | 1022.6 |
| 20260509080045 | 48 | 0 | 0.0 | 1.0 | 0.00 | 0.00 | 0.00 | 90 | 1022.6 |
| 20260509074602 | 49 | 0 | 0.0 | 1.0 | 0.00 | 0.00 | 0.00 | 88 | 1022.6 |
| 20260509073100 | 49 | 0 | 0.0 | 0.0 | 0.00 | 0.00 | 0.00 | 89 | 1022.7 |
| 20260509071543 | 50 | 290 | 0.0 | 2.0 | 0.00 | 0.00 | 0.00 | 88 | 1022.7 |
| 20260509070047 | 50 | 0 | 0.0 | 2.0 | 0.00 | 0.00 | 0.00 | 88 | 1022.7 |
| 20260509064539 | 50 | 290 | 0.0 | 1.0 | 0.00 | 0.00 | 0.00 | 87 | 1022.7 |
| 20260509063053 | 51 | 0 | 0.0 | 0.0 | 0.00 | 0.00 | 0.00 | 87 | 1022.8 |
| 20260509061545 | 51 | 0 | 0.0 | 0.0 | 0.00 | 0.00 | 0.00 | 86 | 1022.7 |
| 20260509054542 | 52 | 283 | 0.0 | 1.0 | 0.00 | 0.00 | 0.00 | 84 | 1022.7 |
| 20260509053053 | 53 | 0 | 0.0 | 2.0 | 0.00 | 0.00 | 0.00 | 83 | 1022.7 |
| 20260509051547 | 53 | 302 | 0.0 | 1.0 | 0.00 | 0.00 | 0.00 | 82 | 1022.6 |
| 20260509050037 | 54 | 0 | 0.0 | 6.0 | 0.00 | 0.00 | 0.00 | 81 | 1022.7 |
| 20260509044543 | 55 | 284 | 4.0 | 8.0 | 0.00 | 0.00 | 0.00 | 80 | 1022.6 |
| 20260509043051 | 55 | 290 | 4.0 | 9.0 | 0.00 | 0.00 | 0.00 | 80 | 1022.5 |
| 20260509041538 | 56 | 290 | 2.0 | 5.0 | 0.00 | 0.00 | 0.00 | 78 | 1022.4 |
| 20260509040104 | 56 | 260 | 2.0 | 8.0 | 0.00 | 0.00 | 0.00 | 76 | 1022.2 |
| 20260509034537 | 57 | 267 | 2.0 | 8.0 | 0.00 | 0.00 | 0.00 | 75 | 1022.3 |
| 20260509033107 | 58 | 283 | 3.0 | 6.0 | 0.00 | 0.00 | 0.00 | 73 | 1022.0 |
| 20260509031548 | 59 | 280 | 4.0 | 9.0 | 0.00 | 0.00 | 0.00 | 71 | 1021.9 |
| 20260509030043 | 60 | 274 | 5.0 | 14.0 | 0.00 | 0.00 | 0.00 | 69 | 1021.9 |
| 20260509024556 | 61 | 275 | 4.0 | 10.0 | 0.00 | 0.00 | 0.00 | 67 | 1021.8 |
| 20260509023046 | 62 | 283 | 4.0 | 9.0 | 0.00 | 0.00 | 0.00 | 65 | 1021.8 |
| 20260509021545 | 62 | 276 | 7.0 | 13.0 | 0.00 | 0.00 | 0.00 | 65 | 1021.7 |
| 20260509020047 | 63 | 278 | 6.0 | 9.0 | 0.00 | 0.00 | 0.00 | 63 | 1021.7 |
| 20260509014539 | 63 | 255 | 6.0 | 11.0 | 0.00 | 0.00 | 0.00 | 63 | 1021.6 |